CZ-6A DEB, 55559

Orbit data source: Space-Track

CZ-6A DEB, 55559 is space debris in SSO originally from a launch on Fri, 11 Nov 2022 UTC launched from the Taiyaun Space Center, China (TSC). Debris objects in space refer to the collection of defunct objects orbiting the Earth. Examples of debris include non-operational satellites, rocket bodies, and fragments generated from explosions, collisions, or faulty payload assembly.

Loading next visibility...
Identifier
55559, 2022-151ZH
Orbit
SSO
Country
Flag of CNCN / PRC
Related business
Manufacturer
SAST
Mission
Spacecraft
Bus & Motor
Unknown
Mass
Unknown
Launch date (UTC)
2022-11-11 (4 years ago)
Launch vehicle
Unknown
Launch site
Taiyaun Space Center, China (TSC)
Object type
Payload
Rocket body
Debris
Shape & HBR
Unknown shape, 0.1 m
Radar Cross Section
Small (<0.1 m²)

Expand to show TLE details & history
Last TLE update: 2 days ago

TLE from 2 days ago
0 CZ-6A DEB
1 55559U 22151ZH  26170.95200602  .00003838  00000-0  16975-2 0  9992
2 55559  98.8310 177.3787 0073959 255.4145 103.8822 14.22344375184551
Epoch: 2026-06-19T22:50Z
TLE epoch observation values (Epoch: 2026-06-19T22:50:53.320Z)
Latitude
-0.00002°
Longitude
-73.51707°
Altitude
833.49 km
Speed
7.429 km/s
True Right ascension
11h 49m 30s
True Declination
0° 00' 00"
Sunlit
Object was in daylight at epoch
Visualization orbit readout
Latitude
Unknown
Longitude
Unknown
Altitude
Unknown
Speed
Unknown
Apparent Right ascension
Unknown
Apparent Declination
Unknown
Sunlit
N/A
Visualization observer readout
Local Sidereal Time
21:30:29
Azimuth
Unknown
Elevation
Unknown
Doppler factor
Unknown
Orbital elements
Apogee altitude
867.793 km
Perigee altitude
761.4 km
Semi-major axis
7,192.733 km
Eccentricity
0.0074
Inclination
98.831°
RAAN
177.3787°
Arg. of periapsis
255.4145°
True anomaly
104.7031°
Mean anomaly
103.8822°
Eccentric anomaly
104.29284°
Mean motion
3.55797 °/min
Orbital period
101.18 mins
BSTAR
0.0016975
Loading maneuver chart data...
Computing Atmospheric mass density...
Loading historical data...
Loading historical data...
Loading historical data...
Loading historical data...
Loading historical data...
Loading historical data...
Loading historical data...

Documentation

Showing up to 5 results
|